When you browse on this site, cookies collect data to enhance your experience and personalize the content and advertising you see.
Visit our Privacy Policy to learn more. By continuing to use the site, you agree to this use of cookies and data.
  • In France
  • List of Countries
  • For 7 days
  • Water Temperature
  • Satellite Maps
  • Weather Map
  • Weather Widgets
  • user-avatar
    Login

    Hourly Weather Trinidad

    Today, 23 March, Saturday

    Time Temperature Precipitation Wind Pressure Humidity
    00:00 +24°C° 0 mm 1 mps 746 mmHg 82%
    01:00 +24°C° 0 mm 1 mps 746 mmHg 82%
    02:00 +24°C° 0 mm 2 mps 746 mmHg 83%
    03:00 +24°C° 0 mm 2 mps 745 mmHg 85%
    04:00 +23°C° 0 mm 2 mps 745 mmHg 86%
    05:00 +23°C° 0 mm 1 mps 745 mmHg 87%
    06:00 +24°C° 0 mm 2 mps 746 mmHg 86%
    07:00 +24°C° 0 mm 2 mps 746 mmHg 84%
    08:00 +25°C° 0 mm 2 mps 747 mmHg 82%
    09:00 +27°C° 0 mm 2 mps 747 mmHg 75%
    10:00 +29°C° 0 mm 2 mps 748 mmHg 68%
    11:00 +31°C° 0 mm 2 mps 748 mmHg 61%
    12:00 +32°C° 0 mm 2 mps 747 mmHg 58%
    13:00 +34°C° 0 mm 2 mps 746 mmHg 56%
    14:00 +33°C° 0 mm 1 mps 745 mmHg 54%
    15:00 +33°C° 0 mm 1 mps 744 mmHg 56%
    16:00 +33°C° 0 mm 1 mps 743 mmHg 58%
    17:00 +33°C° 0 mm 1 mps 743 mmHg 60%
    18:00 +31°C° 0 mm 1 mps 743 mmHg 64%
    19:00 +27°C° 0 mm 0 mps 743 mmHg 69%
    20:00 +25°C° 0 mm 0 mps 743 mmHg 73%
    21:00 +25°C° 0 mm 0 mps 744 mmHg 74%
    22:00 +25°C° 0 mm 0 mps 744 mmHg 75%
    23:00 +24°C° 0 mm 0 mps 745 mmHg 76%

    Tomorrow, 24 March, Sunday

    Time Temperature Precipitation Wind Pressure Humidity
    00:00 +24°C° 0 mm 0 mps 744 mmHg 78%
    01:00 +24°C° 0 mm 0 mps 744 mmHg 79%
    02:00 +23°C° 0 mm 0 mps 744 mmHg 81%
    03:00 +23°C° 0 mm 0 mps 744 mmHg 82%
    04:00 +25°C° 0 mm 1 mps 744 mmHg 83%
    05:00 +24°C° 0 mm 1 mps 744 mmHg 84%
    06:00 +25°C° 0 mm 1 mps 744 mmHg 82%
    07:00 +26°C° 0 mm 1 mps 745 mmHg 81%
    08:00 +27°C° 0 mm 1 mps 745 mmHg 79%
    09:00 +29°C° 0 mm 1 mps 745 mmHg 72%
    10:00 +31°C° 0 mm 1 mps 745 mmHg 64%
    11:00 +34°C° 0 mm 1 mps 746 mmHg 57%
    12:00 +35°C° 0 mm 1 mps 745 mmHg 54%
    13:00 +34°C° 0 mm 0 mps 744 mmHg 51%
    14:00 +36°C° 0 mm 0 mps 743 mmHg 48%
    15:00 +35°C° 0.1 mm 0 mps 742 mmHg 52%
    16:00 +35°C° 0.1 mm 1 mps 741 mmHg 56%
    17:00 +34°C° 0.1 mm 1 mps 741 mmHg 61%
    18:00 +32°C° 0.3 mm 1 mps 741 mmHg 68%
    19:00 +30°C° 0.3 mm 1 mps 742 mmHg 76%
    20:00 +28°C° 0.3 mm 1 mps 743 mmHg 83%
    21:00 +28°C° 1.7 mm 1 mps 743 mmHg 86%
    22:00 +25°C° 1.7 mm 0 mps 743 mmHg 89%
    23:00 +25°C° 1.7 mm 0 mps 744 mmHg 92%

    Day after tomorrow, 25 March, Monday

    Time Temperature Precipitation Wind Pressure Humidity
    00:00 +24°C° 2.3 mm 0 mps 744 mmHg 93%
    01:00 +24°C° 2.3 mm 0 mps 743 mmHg 95%
    02:00 +24°C° 2.3 mm 0 mps 743 mmHg 96%
    03:00 +26°C° 2.1 mm 1 mps 743 mmHg 96%
    04:00 +25°C° 2.1 mm 1 mps 743 mmHg 96%
    05:00 +25°C° 2.1 mm 2 mps 743 mmHg 97%
    06:00 +25°C° 0.5 mm 2 mps 743 mmHg 97%
    07:00 +25°C° 0.5 mm 2 mps 744 mmHg 97%
    08:00 +25°C° 0.5 mm 2 mps 744 mmHg 96%
    09:00 +26°C° 0.2 mm 2 mps 745 mmHg 95%
    10:00 +26°C° 0.2 mm 2 mps 745 mmHg 93%
    11:00 +27°C° 0.2 mm 2 mps 745 mmHg 92%
    12:00 +28°C° 1.3 mm 2 mps 744 mmHg 90%
    13:00 +29°C° 1.3 mm 2 mps 744 mmHg 88%
    14:00 +30°C° 1.3 mm 2 mps 743 mmHg 87%
    15:00 +30°C° 0.5 mm 1 mps 742 mmHg 87%
    16:00 +29°C° 0.5 mm 1 mps 742 mmHg 88%
    17:00 +29°C° 0.5 mm 1 mps 741 mmHg 88%
    18:00 +28°C° 0.3 mm 1 mps 742 mmHg 91%
    19:00 +27°C° 0.3 mm 1 mps 742 mmHg 93%
    20:00 +24°C° 0.3 mm 0 mps 743 mmHg 96%
    21:00 +24°C° 0 mm 0 mps 743 mmHg 96%
    22:00 +24°C° 0 mm 0 mps 744 mmHg 96%
    23:00 +24°C° 0 mm 0 mps 744 mmHg 96%

    26 March, Tuesday

    Time Temperature Precipitation Wind Pressure Humidity
    00:00 +24°C° 0.9 mm 0 mps 744 mmHg 97%
    01:00 +25°C° 0.9 mm 1 mps 744 mmHg 97%
    02:00 +25°C° 0.9 mm 1 mps 743 mmHg 98%
    03:00 +25°C° 0.2 mm 1 mps 743 mmHg 98%
    04:00 +25°C° 0.2 mm 1 mps 743 mmHg 98%
    05:00 +25°C° 0.2 mm 1 mps 743 mmHg 98%
    06:00 +25°C° 0.2 mm 1 mps 743 mmHg 98%
    07:00 +25°C° 0.2 mm 1 mps 744 mmHg 97%
    08:00 +25°C° 0.2 mm 1 mps 745 mmHg 97%
    09:00 +25°C° 0.1 mm 1 mps 745 mmHg 96%
    10:00 +26°C° 0.1 mm 2 mps 745 mmHg 94%
    11:00 +26°C° 0.1 mm 2 mps 745 mmHg 92%
    12:00 +27°C° 0 mm 2 mps 744 mmHg 91%
    13:00 +27°C° 0 mm 2 mps 744 mmHg 89%
    14:00 +28°C° 0 mm 2 mps 743 mmHg 87%
    15:00 +28°C° 0.2 mm 2 mps 743 mmHg 88%
    16:00 +28°C° 0.2 mm 2 mps 742 mmHg 88%
    17:00 +28°C° 0.2 mm 2 mps 742 mmHg 88%
    18:00 +27°C° 0 mm 2 mps 743 mmHg 91%
    19:00 +26°C° 0 mm 2 mps 743 mmHg 94%
    20:00 +26°C° 0 mm 1 mps 744 mmHg 97%
    21:00 +26°C° 0 mm 1 mps 744 mmHg 96%
    22:00 +25°C° 0 mm 1 mps 745 mmHg 96%
    23:00 +25°C° 0 mm 2 mps 745 mmHg 95%

    27 March, Wednesday

    Time Temperature Precipitation Wind Pressure Humidity
    00:00 +25°C° 0 mm 2 mps 745 mmHg 95%
    01:00 +25°C° 0 mm 2 mps 744 mmHg 95%
    02:00 +25°C° 0 mm 2 mps 744 mmHg 95%
    03:00 +25°C° 0 mm 2 mps 744 mmHg 95%
    04:00 +25°C° 0 mm 2 mps 744 mmHg 94%
    05:00 +24°C° 0 mm 2 mps 744 mmHg 94%
    06:00 +25°C° 0 mm 3 mps 745 mmHg 92%
    07:00 +25°C° 0 mm 3 mps 746 mmHg 89%
    08:00 +25°C° 0 mm 3 mps 746 mmHg 87%
    09:00 +27°C° 0 mm 4 mps 747 mmHg 81%
    10:00 +28°C° 0 mm 4 mps 747 mmHg 75%
    11:00 +29°C° 0 mm 4 mps 747 mmHg 69%
    12:00 +30°C° 0 mm 4 mps 746 mmHg 67%
    13:00 +32°C° 0 mm 4 mps 745 mmHg 64%
    14:00 +33°C° 0 mm 4 mps 745 mmHg 62%
    15:00 +31°C° 0.7 mm 3 mps 744 mmHg 70%
    16:00 +30°C° 0.7 mm 3 mps 744 mmHg 78%
    17:00 +29°C° 0.7 mm 2 mps 744 mmHg 86%
    18:00 +28°C° 0.1 mm 2 mps 744 mmHg 88%
    19:00 +27°C° 0.1 mm 2 mps 744 mmHg 90%
    20:00 +25°C° 0.1 mm 2 mps 745 mmHg 92%
    21:00 +25°C° 0 mm 2 mps 745 mmHg 92%
    22:00 +24°C° 0 mm 2 mps 746 mmHg 92%
    23:00 +24°C° 0 mm 2 mps 746 mmHg 91%

    28 March, Thursday

    Time Temperature Precipitation Wind Pressure Humidity
    00:00 +24°C° 0 mm 2 mps 746 mmHg 91%
    01:00 +23°C° 0 mm 2 mps 745 mmHg 91%
    02:00 +23°C° 0 mm 2 mps 745 mmHg 90%
    03:00 +23°C° 0 mm 2 mps 745 mmHg 89%
    04:00 +23°C° 0 mm 2 mps 745 mmHg 88%
    05:00 +23°C° 0 mm 2 mps 745 mmHg 86%
    06:00 +24°C° 0 mm 2 mps 746 mmHg 85%
    07:00 +24°C° 0 mm 2 mps 746 mmHg 83%
    08:00 +24°C° 0 mm 2 mps 747 mmHg 81%
    09:00 +26°C° 0 mm 3 mps 747 mmHg 73%
    10:00 +28°C° 0 mm 3 mps 747 mmHg 65%
    11:00 +30°C° 0 mm 4 mps 747 mmHg 57%
    12:00 +31°C° 0 mm 3 mps 746 mmHg 54%
    13:00 +34°C° 0 mm 3 mps 745 mmHg 51%
    14:00 +35°C° 0 mm 3 mps 744 mmHg 48%
    15:00 +35°C° 0 mm 2 mps 744 mmHg 51%
    16:00 +35°C° 0 mm 2 mps 743 mmHg 53%
    17:00 +34°C° 0 mm 1 mps 743 mmHg 56%
    18:00 +32°C° 0 mm 1 mps 743 mmHg 60%
    19:00 +30°C° 0 mm 1 mps 744 mmHg 65%
    20:00 +28°C° 0 mm 1 mps 744 mmHg 69%
    21:00 +27°C° 0 mm 1 mps 744 mmHg 70%
    22:00 +27°C° 0 mm 1 mps 745 mmHg 71%
    23:00 +26°C° 0 mm 1 mps 745 mmHg 72%
    Show more